Regional Weather Roundup
Issued by NWS Northern Indiana

Home | Current Version | Previous Version | Graphics & Text | Print | Product List | Glossary On
Versions: 1 2 3 4 5 6 7 8 9 10 11 12 13 14 15 16 17 18 19 20 21 22 23 24 25 26 27 28 29 30 31 32 33 34 35 36 37 38 39 40 41 42 43 44 45 46 47 48 49 50
000
ASUS43 KIWX 181310
RWRIWX

KIWX WEATHER ROUNDUP
NATIONAL WEATHER SERVICE NORTHERN INDIANA
800 AM EST THU JAN 18 2018

NOTE: "FAIR" INDICATES FEW OR NO CLOUDS BELOW 12,000 FEET WITH NO
SIGNIFICANT WEATHER AND/OR OBSTRUCTIONS TO VISIBILITY.

* THESE STATIONS ARE NOT UNDER NWS QUALITY CONTROL. THEY ALSO MAY NOT
  REPORT WEATHER SUCH AS PRECIPITATION OR FOG.

INZ001>027-181400-
NORTHERN INDIANA

CITY           SKY/WX    TMP DP  RH WIND       PRES   REMARKS
GARY*          CLEAR     16   9  73 SW10      30.19F WCI   3
VALPARAISO     FAIR      15   9  76 SW15      30.19F WCI   0
MICHIGAN CITY* FAIR      18  10  73 SW12G22   30.18S WCI   5
LAPORTE*       FAIR      13   8  78 SW13      30.18F WCI  -1
KNOX*          FAIR      14   9  79 SW15      30.20F WCI  -1
SOUTH BEND     FAIR      12   6  77 SW12      30.15F WCI  -2
ELKHART*       FAIR      16   9  73 SW10G16   30.15F WCI   3
GOSHEN         FAIR      15   8  73 SW20G29   30.15F WCI  -2
MONTICELLO*    FAIR      15   7  72 SW15G21   30.25S WCI  -1
LOGANSPORT*    FAIR      14   9  79 SW12      30.26S WCI   0
ROCHESTER*     FAIR      18  10  73 SW13G21   30.22S WCI   4
WARSAW*        FAIR      14   9  79 SW14G22   30.17F WCI  -1
AUBURN*        FAIR      16 -24  16 SW12G20   30.16S WCI   3
FORT WAYNE     FAIR      15   8  73 W18       30.19S WCI  -2
HUNTINGTON*    FAIR      15   7  70 W16G22    30.21R WCI   0
PERU/GRISSOM   FAIR      15   9  78 W18       30.22F WCI  -2
MARION*        LGT SNOW  13   8  79 SW17      30.25S WCI  -3

$$
INZ028>050-181400-
CENTRAL INDIANA

CITY           SKY/WX    TMP DP  RH WIND       PRES   REMARKS
LAFAYETTE      FAIR      14   8  77 SW12G21   30.28F WCI   0
MUNCIE*        FAIR      14   6  70 SW16G23   30.24F WCI  -2
INDIANAPOLIS   FAIR      11   6  81 SW15      30.32F WCI  -5

$$
MIZ043>046-050>051-056>058-064>065-071>073-077>080-181400-
SOUTHWEST LOWER MICHIGAN

CITY           SKY/WX    TMP DP  RH WIND       PRES   REMARKS
BATTLE CREEK   CLOUDY    16  10  77 SW14      30.07F WCI   2
BENTON HARBOR  MOCLDY    22  15  75 SW18G28   30.13S WCI   7
COLDWATER*     FAIR      15   9  76 SW13      30.10F WCI   1
HILLSDALE*     FAIR      14   9  79 SW12G20   30.06F WCI   0
HOLLAND        FAIR      25  18  74 W21       30.06S WCI  11
GRAND RAPIDS   MOCLDY    24  17  74 SW21      30.03S WCI   9
KALAMAZOO      FAIR      16  10  77 SW13      30.09S WCI   2
STURGIS*       FAIR      16   9  76 W14       30.11F WCI   1
THREE RIVERS*  FAIR      16   9  74 SW8       30.12S WCI   5

$$
OHZ001>008-015>018-024>025-181400-
NORTHWEST OHIO

CITY           SKY/WX    TMP DP  RH WIND       PRES   REMARKS
WAUSEON*       FAIR      14  10  85 SW13      30.14S WCI   0
DEFIANCE       FAIR      14   6  70 SW8       30.17R WCI   3
FINDLAY        FAIR      15   5  64 SW13      30.18R WCI   1
TOLEDO EXPRESS FAIR      14   9  80 SW12      30.15R WCI   0
TOLEDO METCALF FAIR      15   7  70 SW16      30.17R WCI  -1
LIMA           FAIR      13   6  74 SW17      30.18F WCI  -4

$$
AND FOR LAKE MICHIGAN COASTAL AND OPEN LAKE BUOY OBSERVATIONS

STATION/POSITION TEMP    WIND        PRES    VSBY  WAVE
                 AIR SEA DIR/SP/G                  HT/PER
                 (F)     (DEG/KT/KT) (MB)    (MI)  (FT/S)
CALUMET HARBOR    17     210/ 11/ 15 1020.7F
MICHIGAN CITY     17     200/ 19/ 23   N/A
BURNS HARBOR      16     220/ 14/ 20 1022.4F
SAINT JOSEPH      23     230/ 21/ 30 1020.7

$$
&&



USA.gov is the U.S. government's official web portal to all federal, state and local government web resources and services.